Regional Weather Roundup
Issued by NWS

Home | Current Version | Previous Version | Text Only | Print | Product List | Glossary On
Versions: 1 2 3 4 5 6 7 8 9 10 11 12 13 14 15 16 17 18 19 20 21 22 23 24 25 26 27 28 29 30 31 32 33 34 35 36 37 38 39 40 41 42 43 44 45 46 47 48 49 50
000
ASUS44 KFWD 210215
RWRTX
NORTH TEXAS HOURLY WEATHER ROUNDUP
NATIONAL WEATHER SERVICE FORT WORTH TX
900 PM CDT SUN APR 20 2014

NOTE: "FAIR" INDICATES FEW OR NO CLOUDS BELOW 12,000 FEET WITH NO
SIGNIFICANT WEATHER AND/OR OBSTRUCTIONS TO VISIBILITY.

TXZ118-119-210300-
DALLAS/FORT WORTH METROPLEX

CITY           SKY/WX    TMP DP  RH WIND       PRES   REMARKS
DFW AIRPORT    LGT RAIN  63  60  90 NE5       30.06R FOG
DALLAS LOVE    RAIN      64  61  90 E3        30.06R
FTW MEACHAM    HVY RAIN  63  62  97 E9        30.05R FOG
DAL-EXECUTIVE  LGT RAIN  65  62  90 CALM      30.06S
FTW-ALLIANCE   LGT RAIN  61  59  93 E6        30.06R
FTW-NAS-JRB    CLOUDY    66  61  84 E7        30.10S
FTW-SPINKS     LGT RAIN  64  63  96 NE3       30.08R
ARLINGTON      CLOUDY    64  63  94 CALM      30.07R
GRAND PRAIRIE  CLOUDY    63  63 100 N3        30.08S
ADDISON        CLOUDY    63  59  88 NE8       30.08S FOG
LANCASTER      LGT RAIN  64  60  87 CALM      30.07R
$$

TXZ091>094-102>105-117-120-121-131>134-210300-
NORTH CENTRAL TEXAS

CITY           SKY/WX    TMP DP  RH WIND       PRES   REMARKS
SHRMAN/DENISON LGT RAIN  61  57  85 SE7       30.06S
GAINESVILLE    LGT RAIN  59  58  96 SE9       30.07F
BOWIE          CLOUDY    60  59  98 SE8       30.05S
BRIDGEPORT     RAIN      61  61 100 SE7       30.07R
DECATUR        RAIN      60  60 100 E14       30.06F
DENTON         LGT RAIN  61  59  93 E8        30.06S
MCKINNEY       LGT RAIN  62  60  93 NE5       30.07S
GREENVILLE     CLOUDY    66  57  72 N6        30.08R
ROCKWALL       LGT RAIN  63  60  90 N7        30.07R
TERRELL        CLOUDY    69  59  70 N6        30.06R
WAXAHACHIE     RAIN      64  60  88 CALM      30.09R
CLEBURNE       LGT RAIN  66  66 100 NE3       30.08R
GRANBURY       CLOUDY    67  64  92 SE6       30.05S
$$

TXZ083>090-098>101-113>116-127>130-139>142-154-155-210300-
WESTERN NORTH TEXAS

CITY           SKY/WX    TMP DP  RH WIND       PRES   REMARKS
WICHITA FALLS  PTCLDY    61  58  90 SE15      30.00R
WF-KICKAPOO    PTCLDY    62  59  91 SE8       30.02S
VERNON         CLOUDY    65  60  81 SE16      29.99R
ABILENE        CLOUDY    67  63  87 SE13      30.01F
ABILENE-DYESS  CLOUDY    66  63  88 SE15      30.00S
BRECKENRIDGE   CLOUDY    66  65  97 SE6       30.02S
GRAHAM         LGT RAIN  63  62  95 E7        30.02R
MINERAL WELLS  LGT RAIN  64  63  96 SE8       30.03R FOG
STEPHENVILLE   CLOUDY    65  62  91 S9        30.06F
COMANCHE       CLOUDY    65  64  96 S9        30.04S
BROWNWOOD      CLOUDY    64  64 100 SE5       30.05R
COLEMAN        CLOUDY    65  63  93 S6        30.05R
BRADY          CLOUDY    64  64 100 SE9       30.05R
$$

TXZ143>147-156>162-174-175-210300-
CENTRAL TEXAS

CITY           SKY/WX    TMP DP  RH WIND       PRES   REMARKS
WACO           CLOUDY    69  62  78 CALM      30.04S
WACO-TSTC      CLOUDY    70  61  73 CALM      30.04
WACO-MCGREGOR  CLOUDY    66  61  82 CALM      30.06R
HILLSBORO      DRIZZLE   66  61  82 N5        30.06R
CORSICANA      CLOUDY    72  58  61 S5        30.05R
MEXIA          MOCLDY    69  58  67 S6        30.04S
HEARNE         CLOUDY    73  57  57 SE5       30.06R
CAMERON        CLOUDY    74  57  56 S6        30.04S
TEMPLE         CLOUDY    72  55  56 SE7       30.07S
KILLEEN        CLOUDY    68  63  83 CALM      30.04R
KILLEEN-SKYLRK PTCLDY   N/A N/A N/A SE3       30.03R
FORT HOOD      CLOUDY    71  59  65 SE5       30.05R
GATESVILLE     MOCLDY    68  63  83 CALM      30.06S
HAMILTON       CLOUDY    66  66 100 SE6       30.07R
LAMPASAS       CLOUDY    68  64  88 CALM      30.05R
$$

TXZ095>097-106>112-122>126-135>138-148>153-164>167-210300-
EAST TEXAS

CITY           SKY/WX    TMP DP  RH WIND       PRES   REMARKS
PARIS          CLOUDY    64  59  82 NW8       30.10S
SULPHUR SPRNGS CLOUDY    68  59  73 N3        30.10S
CLARKSVILLE    CLOUDY    67  64  89 CALM      30.09R
MOUNT PLEASANT CLOUDY    69  62  77 CALM      30.08S
GILMER         MOCLDY    70  63  78 CALM      30.07F
MINEOLA        MOCLDY    68  64  88 CALM      30.08R
TYLER          PTCLDY    71  56  58 CALM      30.06R
LONGVIEW       CLOUDY    69  59  70 CALM      30.05S
MARSHALL       PTCLDY    66  61  84 CALM      30.09R
ATHENS         MOCLDY    66  55  68 CALM      30.04S
PALESTINE      MOCLDY    69  58  69 CALM      30.07F
JACKSONVILLE   PTCLDY    70  53  55 S3        30.09R
HENDERSON      PTCLDY    70  58  65 SE3       30.07S
NACOGDOCHES    CLOUDY    68  57  68 CALM      30.07R
LUFKIN         PTCLDY    73  55  53 S6        30.07R
$$

SUPPLEMENTAL OBSERVATIONS (CENTRAL)

CITY           SKY/WX    TMP DP  RH WIND       PRES   REMARKS
LAKE TEXOMA      N/A     61  61 100 SE7         N/A
CADDO GRASSLND   N/A     61  57  88 SE1         N/A
PAT MAYSE LAKE   N/A     63  59  88 W2          N/A
GREENVILLE       N/A     64  54  68 N8          N/A
CEDAR HILL       N/A    N/A N/A N/A SE1         N/A
ATHENS           N/A     70  59  68 E3          N/A
PALESTINE        N/A     68  59  73 CALM        N/A
MCGREGOR         N/A     68  63  83 S5          N/A
TEMPLE           N/A     72  59  64 SE6         N/A
$$

SUPPLEMENTAL OBSERVATIONS (WEST)

CITY           SKY/WX    TMP DP  RH WIND       PRES   REMARKS
MILLERS CREEK    N/A     63  57  82 SE12G20     N/A
POSSUM KINGDOM   N/A    N/A N/A N/A E3          N/A
LBJ GRASSLAND    N/A     61  59  94 E12         N/A
GRANBURY         N/A     66  63  88 SE7         N/A
HAMBY            N/A     66  63  88 S9          N/A
IVIE RESERVOIR   N/A     66  63  88 SE7         N/A
COLORADO BEND    N/A     66  61  82 SW2         N/A
$$

SUPPLEMENTAL OBSERVATIONS (EAST)

CITY           SKY/WX    TMP DP  RH WIND       PRES   REMARKS
CLARKSVILLE      N/A     66  61  82 NW5         N/A
TEXARKANA        N/A     64  61  88 CALM        N/A
LINDEN           N/A     66  61  82 CALM        N/A
GILMER           N/A     68  61  77 CALM        N/A
HENDERSON        N/A     72  55  56 SE5         N/A
LUFKIN           N/A     70  55  60 MISG        N/A
N SABINE NF      N/A     64  57  77 MISG        N/A
S SABINE NF      N/A     64  59  82 CALM        N/A
$$

SUPPLEMENTAL OBSERVATIONS ARE A COLLECTION OF AUTOMATED INSTRUMENTS
THAT ARE MAINTAINED BY A VARIETY OF FEDERAL AND STATE AGENCIES.
CERTAIN ELEMENTS...SUCH AS HUMIDITY VALUES AND SUSTAINED WIND
SPEEDS...MAY BE APPROXIMATED.




USA.gov is the U.S. government's official web portal to all federal, state and local government web resources and services.